Location: Goettingen
(51.5300°N, 9.9433°E)
Time: 20:32:43
(UTC+02:00)

ISS - Pass Details

Date: 18 July 2019
Orbit: 409 x 418 km, 51.6° (Epoch: 20 July)

Event Time Altitude Azimuth Distance (km) Brightness Sun altitude
Rises 23:02:21 0° 234° (SW) 2,347 0.0 -10.9°
Reaches altitude 10° 23:04:30 10° 228° (SW) 1,485 -1.1 -11.1°
Maximum altitude 23:07:40 43° 156° (SSE) 595 -3.5 -11.4°
Drops below altitude 10° 23:10:52 10° 83° (E) 1,486 -1.2 -11.7°
Sets 23:13:00 0° 76° (ENE) 2,348 -0.1 -11.8°
